User: anonymous   Login
Location: Brno
(49.2000°N, 16.6330°E)
Time: 22:13:23
(UTC+01:00)
Language:

Cosmos 2227 - Orbit

View from above orbital plane
View from above orbital plane
View from above satellite
View from above satellite

Ground track
Ground track

The orbit data is extracted from the following two-line orbital elements,

1 22284U 92093A   14356.23855120  .00000442  00000-0  26134-3 0   503
2 22284 070.9784 338.7566 0017503 109.7675 338.1970 14.13188991134378
Epoch (UTC): 22 December 2014 05:43:30
Eccentricity: 0.0017503
inclination: 70.9784°
perigee height: 836 km
apogee height: 861 km
right ascension of ascending node: 338.7566°
argument of perigee: 109.7675°
revolutions per day: 14.13188991
mean anomaly at epoch: 338.1970°
orbit number at epoch: 13437

The dashed part of the orbit path shows where the satellite is in the earth's shadow,  

DLR